www.pogodaiklimat.ru

Погода и климат >> Архив погоды >> Иран >> Bandar Deyr


ПОГОДА в Bandar Deyr

  • Прогноз погоды в Bandar Deyr
  • Монитор погоды в Bandar Deyr
  • Климат города

АРХИВ ПОГОДЫ в Bandar Deyr

Время (UTC), дата Ветер
(напр.,м/с)
 
Видим.   Явления Облачность Т
(С)
Тd
(С)
f
(%)
Тe
(С)
Тes
(С)
Комфортность P
(гПа)
Po
(гПа)
Тmin
(С)
Tmax
(С)
R
(мм)
R24
(мм)
S
(см)
03 14.08 СЗ 3 7000 м мгла ясно +34.4 +21.0 46 +42 +43 опасность
перегрева
993.4 993.0 +32.6
06 14.08 ЮВ 6 7000 м дымка ясно +35.2 996.0 995.6
09 14.08 Ю 3 7000 м мгла ясно +35.5 +31.3 79 +67 +84 опасность
перегрева
996.1 995.7
12 14.08 ЮЗ 4 7000 м пыль ясно +37.1 995.6 995.2
15 14.08 З 3 7000 м пыль ясно +37.0 +26.4 55 +53 +53 опасность
перегрева
994.6 994.2 +39.3
18 14.08 штиль 0 7000 м пыль ясно +36.2 +24.2 50 +48 +48 опасность
перегрева
995.8 995.4
21 14.08 З 1 7000 м пыль ясно +34.9 +15.7 32 +37 +37 очень
душно
995.8 995.4
03 15.08 С 1 8000 м пыль ясно +32.8 +17.6 40 +37 +38 очень
душно
996.2 995.8 +31.8
06 15.08 СЗ 4 8000 м пыль ясно +39.6 997.1 996.7
09 15.08 ЮЗ 3 8000 м пыль ясно +39.0 +28.3 55 +60 +77 опасность
перегрева
996.6 996.2
12 15.08 В 4 10 км ясно +40.0 995.6 995.2
15 15.08 З 3 8000 м пыль ясно +41.6 +18.0 26 +45 +45 опасность
перегрева
995.9 995.5 +44.1
18 15.08 З 2 8000 м пыль ясно +38.0 +17.7 31 +41 +41 опасность
перегрева
997.2 996.8
21 15.08 СЗ 3 8000 м пыль ясно +37.4 +15.0 27 +39 +39 очень
душно
996.8 996.4
00 16.08 З 4 8000 м пыль ясно +37.2 +13.8 25 +38 +38 душно 996.2 995.8
03 16.08 СЗ 2 10 км ясно +36.0 +13.8 27 +37 +38 душно 997.3 996.9 +34.1
06 16.08 В 2 7000 м мгла ясно +38.2 998.8 998.4
09 16.08 Ю 3 7000 м пыль ясно +36.7 +29.7 67 +62 +79 опасность
перегрева
998.2 997.8
12 16.08 Ю 2 7000 м пыль ясно +37.1 996.9 996.4
15 16.08 ЮВ 4 7000 м пыль ясно +37.3 +26.3 54 +54 +54 опасность
перегрева
996.9 996.4 +39.3
18 16.08 ЮВ 2 7000 м пыль ясно +35.0 +29.4 73 +60 +60 опасность
перегрева
998.2 997.7
21 16.08 ЮВ 1 7000 м пыль ясно +34.3 +26.5 64 +51 +51 опасность
перегрева
997.9 997.4
00 17.08 С 1 7000 м пыль ясно +33.0 +19.7 46 +39 +39 очень
душно
997.1 996.6
03 17.08 СВ 1 7000 м пыль ясно +31.5 +25.2 69 +45 +46 опасность
перегрева
997.8 997.4 +28.8
06 17.08 ЮВ 3 7000 м пыль ясно +35.6 999.0 998.6
09 17.08 Ю 3 7000 м пыль ясно +37.0 +29.0 64 +60 +77 опасность
перегрева
997.9 997.5
12 17.08 Ю 4 7000 м пыль ясно +36.2 996.8 996.4
15 17.08 Ю 2 7000 м пыль ясно +34.8 +28.6 70 +57 +57 опасность
перегрева
996.3 995.8 +38.0
18 17.08 Ю 2 7000 м пыль ясно +33.8 +29.3 77 +58 +58 опасность
перегрева
996.8 996.4
21 17.08 СВ 2 7000 м пыль ясно +32.4 +27.8 77 +53 +53 опасность
перегрева
995.9 995.4
00 18.08 С 2 7000 м дымка ясно +31.2 +27.7 82 +51 +51 опасность
перегрева
995.4 994.9
03 18.08 С 2 7000 м пыль ясно +30.0 +24.9 74 +43 +44 опасность
перегрева
995.6 995.1 +30.0
06 18.08 ЮВ 6 7000 м пыль ясно +34.8 996.7 996.3
09 18.08 ЮВ 5 7000 м пыль ясно +35.9 +30.3 73 +64 +74 опасность
перегрева
996.9 996.5
12 18.08 Ю 3 7000 м пыль ясно +35.8 996.0 995.5
15 18.08 Ю 2 7000 м пыль ясно +34.7 +28.0 68 +55 +55 опасность
перегрева
996.1 995.6 +36.1
18 18.08 З 1 7000 м пыль ясно +34.2 +27.9 70 +55 +55 опасность
перегрева
996.8 996.4
21 18.08 СВ 1 7000 м пыль ясно +32.5 +26.5 71 +49 +49 опасность
перегрева
996.2 995.8
00 19.08 СЗ 1 7000 м пыль ясно +31.9 +25.0 67 +45 +45 опасность
перегрева
995.8 995.3
03 19.08 С 1 7000 м пыль ясно +29.7 +23.8 71 +41 +42 опасность
перегрева
996.6 996.1 +29.0
06 19.08 ЮВ 2 7000 м пыль ясно +34.6 998.2 997.8
09 19.08 Ю 2 7000 м пыль ясно +35.8 +29.2 69 +60 +80 опасность
перегрева
998.2 997.8
12 19.08 Ю 3 7000 м пыль ясно +36.2 996.9 996.4
15 19.08 Ю 2 7000 м пыль ясно +34.8 +29.4 74 +60 +60 опасность
перегрева
996.1 995.7 +36.4
18 19.08 В 2 7000 м пыль ясно +34.2 +27.7 69 +54 +54 опасность
перегрева
996.8 996.3
21 19.08 СВ 2 7000 м пыль ясно +31.8 +27.4 78 +51 +51 опасность
перегрева
996.2 995.8
00 20.08 С 2 7000 м пыль ясно +30.6 +25.9 76 +46 +46 опасность
перегрева
995.6 995.2
03 20.08 СЗ 2 6000 м пыль ясно +30.2 +25.7 77 +45 +46 опасность
перегрева
997.0 996.6 +29.8
06 20.08 ЮВ 5 7000 м пыль ясно +35.6 998.6 998.2
09 20.08 ЮВ 5 7000 м пыль ясно +36.1 +30.7 74 +66 +76 опасность
перегрева
998.7 998.3
12 20.08 ЮЗ 3 7000 м пыль ясно +36.4 997.8 997.3
15 20.08 Ю 3 6000 м пыль ясно +35.9 +28.4 65 +57 +57 опасность
перегрева
997.1 996.6 +36.6
18 20.08 В 1 6000 м пыль ясно +34.8 +28.1 68 +56 +56 опасность
перегрева
997.4 996.9
21 20.08 С 1 6000 м пыль ясно +33.0 +28.0 75 +54 +54 опасность
перегрева
997.1 996.6

 

Местоположение метеостанции Bandar Deyr (Иран): широта 27.83 долгота 51.93 высота над уровнем моря 4 м.

В архиве по умолчанию представлена погода в Bandar Deyr за последнюю неделю. Архивные данные за месяц целиком и за предыдущие месяцы, начиная с января 2011 года, Вы можете получить, выбрав интересующий диапазон дат из раскрывающегося списка и нажав кнопку "Ввод!".


*Определитесь, кто Вы:
робот инопланетянин человек

Внимание! Время в таблицах - всемирное. Для получения местного времени необходимо прибавить поправку, которая в Bandar Deyr равна 3.5 ч.

Смотрите также архив погоды в соседних городах и на ближайших метеорологических станциях:

Погода в Bushehr (Иран) (163 км)
Погода в Bushehr Airport (Иран) (167 км)
Погода в Shiraz (Иран) (198 км)
Погода в Fasa (Иран) (213 км)
Погода в Bahrain (Бахрейн) (215 км)
Погода в Khark (Иран) (224 км)
Погода в Dhahran (Саудовская Аравия) (246 км)
Погода в Kish Island (Иран) (251 км)
Погода в King Fahd Int Airport (Саудовская Аравия) (259 км)
Погода в Hamad Int Airport (Катар) (287 км)

Пояснения к столбцам:

Ветер - указаны скорость ветра в м/с - средняя за 10 мин, порывы в срок и между сроками (в фигурных скобках) и направление, откуда дует ветер: С - северный, СВ - северо-восточный, В - восточный, ЮВ - юго-восточный, Ю - южный, ЮЗ - юго-западный, З - западный, СЗ - северо-западный.
Видимость - горизонтальная дальность видимости в метрах или километрах. При видимости от 1 до 10 км при отсутствии осадков обычно наблюдается дымка, при ухудшении видимости до 1 км и менее - туман. В сухую погоду видимость может ухудшаться дымом, пылью или мглою.
Явления - указаны атмосферные явления, наблюдавшиеся в срок или в последний час перед сроком; фигурными скобками обозначены явления, наблюдавшиеся между сроками (за 1-3 часа до срока); квадратными скобками обозначены град или гололедные отложения с указанием их диаметра в мм.
Облачность - указаны через наклонную черту общая и нижняя облачность в баллах и высота нижней границы облаков в метрах; квадратными скобками обозначены формы облаков: Ci - перистые, Cs - перисто-слоистые, Cc - перисто-кучевые, Ac - высококучевые, As - высокослоистые, Sc - слоисто-кучевые, Ns - слоисто-дождевые, Cu - кучевые, Cb - кучево-дождевые. Подробнее классификацию облаков см. в Атласе облаков (PDF).
T - Температура воздуха - температура, измеренная на высоте 2 м над землей.
Td - Температура точки росы - температура, при понижении до которой содержащийся в воздухе водяной пар достигнет насыщения.
f - Относительная влажность воздуха - влажноcть воздуха, измеренная на высоте 2 м над землей.
Te - Эффективная температура - температура, которую ощущает одетый по сезону человек в тени. Характеристика душности погоды. При расчете учитывается влияние влажности воздуха и скорости ветра на теплоощущения человека.
Tes - Эффективная температура на солнце - температура, которую ощущает человек, с поправкой на солнечный нагрев. Характеристика знойности погоды. Зависит от высоты солнца над горизонтом, облачности и скорости ветра. Ночью, в пасмурную погоду, а также при ветре 12 м/с и более поправка равна нулю.
P - Атмосферное давление - приведенное к уровню моря атмосферное давление.
Po - Атмосферное давление - измеренное на уровне метеостанции атмосферное давление.
Tmin - Минимальная температура - минимум температуры воздуха на высоте 2 м над землей.
Tmax - Максимальная температура - максимум температуры воздуха на высоте 2 м над землей.
R - Количество осадков - Количество выпавших осадков за период времени, мм. При наведении курсора мыши на число - период времени, за который выпало указанное количество осадков.
R24 - Количество осадков - Количество выпавших осадков за 24 часа, мм.
S - Снежный покров - Высота снежного покрова, см. При наведении курсора мыши на число - состояние снежного покрова и степень покрытия местности в баллах.